Vorticity
18 14 -17 20 -34 87 25 -11 -8 -12 5 -2 14 4 14 5 7 8 2 -0 6 6
15 11 13 25 0 19 23 46 -23 32 17 22 62 7 -6 -4 -1 6 8 11 5 6
25 12 24 10 14 39 34 18 0 -2 3 -10 7 15 18 -3 5 -10 4 3 -2 4
4 4 -4 22 12 19 22 5 32 56 29 10 10 22 21 15 21 4 -1 12 2 -3
-20 2 -3 -9 3 -1 14 17 28 7 56 17 7 18 7 22 12 5 -1 -3 6 12
4 -1 -1 6 -7 -6 -1 3 10 22 21 35 52 39 17 49 59 54 37 17 5 3
5 2 -3 7 -0 11 1 9 -6 -1 18 34 -1 -0 36 -8 -0 8 -5 17 26 20
15 13 5 1 -15 0 31 13 14 3 -14 0 -2 4 -2 -1 2 17 12 10 11 23
38 19 23 6 6 16 15 12 27 6 -9 34 2 -1 3 7 7 6 0 13 5 15
-25 7 14 20 18 0 31 20 -28 4 13 5 5 4 7 23 27 8 31 35 31 42
8 11 -4 7 12 8 -7 2 12 5 -2 4 11 8 7 -0 -1 -10 -7 6 5 19
8 7 6 6 6 8 8 9 9 10 12 10 11 10 11 16 15 11 18 10 15 8
10 7 7 8 5 6 6 6 5 5 4 4 4 7 7 6 5 8 6 8 11 6
8 9 11 11 9 9 8 8 8 6 7 7 5 4 2 3 2 3 5 6 7 7
Height
5616 5625 5632 5633 5638 5644 5653 5662 5671 5680 5690 5698 5705 5712 5719 5725 5731 5735 5738 5742 5747 5750
5618 5624 5630 5635 5636 5640 5648 5658 5666 5673 5682 5688 5692 5700 5707 5711 5720 5724 5727 5731 5735 5739
5617 5622 5625 5629 5632 5635 5641 5649 5658 5666 5673 5679 5685 5691 5696 5699 5705 5711 5716 5719 5722 5727
5613 5617 5621 5627 5630 5634 5638 5644 5651 5656 5662 5669 5675 5681 5685 5690 5695 5700 5704 5707 5711 5714
5609 5615 5620 5621 5624 5629 5635 5639 5645 5649 5655 5661 5666 5671 5677 5680 5685 5688 5693 5697 5699 5702
5605 5613 5618 5620 5624 5628 5632 5636 5640 5645 5652 5654 5657 5663 5669 5675 5678 5681 5684 5685 5687 5689
5609 5613 5615 5618 5623 5627 5630 5635 5639 5641 5645 5651 5652 5655 5663 5667 5669 5672 5673 5675 5677 5680
5604 5607 5611 5615 5619 5624 5627 5631 5634 5636 5641 5646 5648 5649 5654 5656 5659 5662 5663 5665 5667 5670
5603 5606 5608 5611 5615 5620 5623 5627 5630 5633 5636 5640 5643 5644 5646 5649 5651 5653 5654 5655 5657 5659
5602 5605 5605 5608 5613 5614 5617 5619 5623 5626 5629 5632 5635 5637 5640 5640 5642 5644 5645 5647 5649 5650
5599 5601 5603 5606 5608 5609 5610 5614 5618 5621 5623 5625 5627 5629 5630 5632 5634 5635 5637 5638 5639 5640
5595 5597 5598 5600 5601 5603 5605 5608 5610 5613 5615 5617 5618 5620 5621 5622 5624 5626 5627 5628 5629 5628
5589 5591 5592 5594 5597 5597 5598 5600 5603 5604 5606 5608 5609 5611 5613 5613 5614 5614 5616 5617 5617 5617
5583 5584 5586 5588 5590 5591 5592 5593 5596 5597 5598 5600 5601 5602 5602 5603 5604 5603 5603 5604 5604 5603